RH
99 99 98 97 92 84 81 81 83 90 78 60 66 74 62 47 33 23 31 40 37 41 47 41 36 36 33 32 33 34 36 34 29 29 32 35 37 38 40 38 38 40 39 41 40 38 41 37 31 33 28 22 23 20 19 19 17 19 21 25 37 42 37 39 39 31 24 20 19 22 26 29 33 32 27 30 35 35 38 41 44 51 46 37 40 45 45
99 98 99 98 96 89 84 82 83 90 89 80 80 71 49 38 33 25 30 36 33 37 44 41 39 38 35 38 40 36 35 36 34 32 33 35 37 40 40 38 40 41 39 39 37 39 46 43 32 31 31 27 24 19 19 21 18 19 24 28 35 39 38 42 46 43 35 33 38 39 35 40 49 46 37 35 36 36 37 36 42 51 46 42 51 52 45
99 99 100 99 98 93 88 85 84 91 91 81 77 70 53 46 42 30 28 33 33 32 33 36 38 37 41 48 46 39 36 35 34 34 32 30 32 39 38 36 38 39 38 38 37 36 43 45 37 33 32 29 24 19 22 23 19 20 26 26 27 34 39 42 49 53 49 47 52 51 42 42 50 48 41 37 37 39 42 42 47 52 43 40 49 50 44
99 100 100 99 99 95 91 88 86 92 91 77 76 73 56 46 40 27 24 28 30 29 28 33 37 37 44 51 46 42 42 36 30 32 34 31 31 37 37 35 38 40 40 46 48 42 40 43 42 38 35 33 27 23 23 21 18 25 31 27 23 30 37 39 46 53 50 48 49 45 41 42 43 43 41 38 37 40 44 49 52 48 42 43 44 41 39
99 100 100 100 100 96 94 91 88 93 87 74 78 76 58 51 44 32 34 35 28 26 28 32 36 36 42 47 45 46 48 42 36 33 34 32 32 37 37 37 44 47 47 54 56 47 40 42 45 44 42 37 32 29 25 22 27 32 30 24 25 33 37 38 46 53 48 46 47 43 43 45 42 41 43 41 39 39 44 52 51 45 50 52 39 32 39
99 100 99 100 99 95 95 92 90 94 82 65 70 66 47 47 44 35 43 47 35 32 37 42 43 40 39 39 42 45 46 45 45 40 34 33 35 41 43 41 43 45 46 55 61 54 49 48 48 49 49 45 44 42 31 26 32 32 24 22 29 40 46 45 50 54 49 44 43 39 38 39 36 36 41 43 43 45 48 49 45 45 56 57 43 42 51
100 100 99 100 98 94 94 91 91 96 78 57 66 66 45 42 46 45 52 55 45 39 40 43 46 43 39 39 41 45 46 48 49 42 41 43 39 42 48 46 44 44 43 49 58 59 59 59 55 53 55 55 55 56 48 36 31 28 26 30 37 47 53 49 48 51 48 41 37 33 31 32 32 34 37 38 40 43 46 47 44 44 50 50 45 48 52
99 100 100 100 99 95 93 91 94 97 77 55 62 64 50 50 57 60 63 58 48 43 39 42 46 39 37 42 43 44 47 51 50 44 48 56 50 44 48 47 44 48 47 46 49 50 52 59 58 56 60 62 61 61 57 48 41 35 32 36 45 54 54 45 43 49 46 38 35 33 31 34 38 37 35 34 36 37 38 41 43 45 47 46 49 56 52
100 100 100 100 99 97 95 93 97 97 79 60 59 54 48 53 58 61 67 62 50 44 38 39 44 39 37 43 45 48 51 50 50 48 45 49 50 45 45 47 46 48 48 47 47 45 44 48 49 48 52 55 56 57 53 49 50 48 40 37 46 58 57 44 42 50 46 36 35 34 32 35 40 40 36 35 37 38 37 36 36 39 43 46 55 62 52
100 100 100 100 100 99 97 96 99 96 79 67 65 57 51 56 56 56 66 67 55 46 39 37 41 42 42 45 44 46 47 41 44 52 47 39 38 39 42 50 53 55 57 54 48 42 39 38 35 34 37 37 38 43 44 43 48 51 47 42 42 49 52 46 43 49 46 36 33 34 36 42 46 43 40 38 37 37 39 38 36 39 45 50 53 52 41
100 100 100 100 100 100 99 98 99 95 82 74 73 64 58 63 61 57 65 68 55 44 42 40 40 40 44 48 46 43 43 39 42 53 56 48 42 41 44 49 54 59 58 48 38 34 31 30 28 28 31 34 34 35 37 39 43 45 46 46 43 42 47 46 44 49 49 41 35 38 46 53 50 42 38 36 35 37 41 40 39 41 46 47 44 39 35
100 100 100 100 100 101 100 99 101 95 82 77 78 71 67 73 70 62 68 72 59 46 44 43 44 48 50 50 49 48 48 47 45 49 57 58 52 48 47 49 55 58 49 37 32 31 29 31 34 34 32 34 35 35 37 40 41 39 38 42 45 46 47 46 44 47 47 40 41 53 58 49 40 34 32 31 33 37 41 41 37 36 38 38 37 35 34
100 100 100 100 100 101 100 99 102 96 81 76 79 76 73 78 78 70 70 73 63 51 49 47 47 53 55 52 53 55 51 48 46 47 53 56 55 52 48 46 49 46 36 32 32 35 40 45 47 44 37 33 34 36 38 39 40 39 36 37 42 47 49 48 44 44 45 44 52 65 58 39 31 32 32 34 37 38 42 45 40 34 36 37 36 37 36
100 99 100 101 99 100 101 99 100 97 85 78 82 82 79 80 80 75 72 73 64 50 47 51 49 50 53 54 58 61 57 53 53 53 53 54 56 55 48 42 41 37 33 35 36 41 51 59 58 51 41 36 41 42 37 35 36 37 36 35 36 40 45 48 48 45 45 49 54 55 50 43 40 38 37 39 41 39 44 52 47 37 35 34 33 36 37
98 99 100 101 100 100 101 100 100 98 88 83 87 88 83 80 80 78 74 73 70 57 48 54 60 60 59 57 59 65 66 61 59 58 54 52 51 50 44 39 40 39 36 38 43 46 53 59 61 58 49 45 50 49 40 35 33 32 35 36 36 37 39 44 53 52 46 50 55 55 58 54 45 40 41 40 40 39 43 50 47 37 32 32 33 36 37
96 98 99 100 100 100 100 100 100 97 90 88 90 88 83 81 83 83 77 74 75 67 51 50 60 65 63 60 59 64 67 66 68 68 64 59 54 48 42 39 41 43 40 43 48 51 55 59 60 57 52 47 49 51 46 40 35 33 35 36 37 41 40 42 56 61 56 60 65 63 62 53 38 38 41 38 39 43 42 45 48 41 34 34 36 38 37
97 98 99 100 100 100 100 100 101 98 91 88 87 81 75 78 83 84 80 73 70 64 48 41 50 58 61 62 60 62 68 73 77 81 79 70 60 53 47 45 44 43 43 50 57 55 55 59 58 57 52 42 42 49 47 42 44 45 45 47 50 52 51 52 63 69 65 65 64 56 51 44 34 33 35 34 37 41 43 50 54 46 38 37 38 40 39
98 99 100 100 100 100 100 100 100 97 92 89 88 80 72 77 84 85 79 70 65 61 46 38 47 54 57 61 63 66 75 80 81 85 83 72 63 59 57 53 52 49 45 52 59 58 58 60 55 55 53 39 36 46 46 44 49 48 45 52 58 59 60 61 67 71 69 69 69 61 52 44 35 32 34 36 40 43 48 56 54 44 39 38 38 40 40
97 97 98 100 101 100 100 100 100 95 89 90 94 87 76 78 83 82 78 70 66 62 49 42 51 56 54 57 61 63 68 76 82 86 83 75 69 65 56 50 51 52 47 50 58 60 63 62 50 47 53 46 41 47 49 47 47 42 40 46 50 54 59 61 63 68 68 68 72 72 62 47 37 37 38 40 45 48 50 52 47 40 38 37 37 39 39
95 96 97 99 100 100 100 100 100 93 85 87 95 89 75 74 80 82 79 73 68 63 51 43 49 52 50 55 60 61 65 74 83 88 89 84 75 69 64 62 65 65 57 58 66 65 63 61 51 46 54 55 50 52 52 46 40 36 39 44 42 44 52 55 54 56 60 66 73 74 65 48 38 39 40 40 43 42 40 41 39 36 36 36 36 36 36
95 97 99 100 100 100 100 100 100 94 84 83 92 89 75 71 77 82 83 82 80 71 56 47 48 50 53 55 56 58 64 68 73 83 93 91 80 75 77 78 80 85 80 75 75 68 62 65 63 56 54 51 49 51 52 51 46 35 32 42 45 43 46 50 46 43 52 64 68 62 53 42 35 37 39 39 37 33 33 37 37 35 36 37 36 35 34
93 94 97 99 99 99 101 100 100 97 88 83 91 95 86 76 77 82 86 85 83 73 60 55 55 54 56 58 58 61 68 71 73 81 91 93 83 76 76 73 72 80 85 85 80 71 70 76 75 69 66 59 55 57 57 60 60 45 35 44 51 44 40 46 47 44 47 53 52 46 41 37 34 35 37 36 34 32 33 35 35 35 36 35 35 36 35
92 92 93 94 95 98 101 100 100 99 94 89 92 99 96 86 82 87 87 81 76 72 65 60 59 56 53 53 55 60 67 74 80 80 84 91 87 76 72 73 72 70 73 79 80 78 83 85 78 79 82 70 62 69 70 64 60 49 40 43 42 34 35 44 48 46 44 44 40 37 38 38 35 35 35 34 33 32 32 33 34 35 35 35 36 37 36
93 93 93 91 91 95 100 100 100 101 99 96 95 97 99 94 89 90 88 82 79 77 68 59 56 57 54 50 51 54 58 66 77 80 81 87 90 84 76 71 71 70 68 69 73 76 83 83 75 80 84 68 58 69 75 68 57 49 46 46 39 36 46 54 52 51 56 54 44 36 38 41 37 34 33 32 30 29 31 33 34 34 34 35 36 37 38
93 94 95 94 93 96 100 101 100 100 100 100 98 98 99 99 96 92 89 86 86 85 79 67 57 52 49 46 45 49 50 55 65 75 78 80 83 85 79 67 66 73 73 74 80 82 82 79 74 78 79 66 57 64 70 65 56 48 49 53 47 44 52 57 52 52 58 57 46 37 37 38 34 33 32 30 29 30 31 33 33 32 33 36 36 37 38
89 90 92 94 97 99 100 100 100 100 100 100 100 100 100 100 99 94 90 91 92 89 87 80 63 49 48 51 50 50 50 51 55 61 68 73 75 76 72 64 64 69 70 75 85 85 79 76 75 77 76 64 55 59 61 58 53 49 50 50 45 44 50 51 48 50 53 50 44 40 40 38 34 33 33 31 31 32 32 31 32 31 32 34 35 36 38
85 86 87 89 94 99 100 100 100 101 100 100 100 100 100 100 100 96 91 90 91 89 87 81 64 49 50 55 54 52 51 51 52 54 59 64 67 69 70 68 67 68 69 76 84 85 83 82 78 73 68 58 53 57 57 51 51 56 56 48 43 48 52 50 52 59 60 52 43 42 46 47 43 38 36 34 32 32 30 30 32 33 32 33 36 37 38
85 85 86 87 91 98 101 100 100 100 100 101 100 100 100 100 99 98 92 84 85 88 86 77 65 59 59 57 51 49 49 49 50 54 56 57 59 63 66 67 68 71 75 79 82 82 81 79 72 64 61 60 60 60 55 51 55 62 58 48 44 49 52 51 55 61 58 49 41 42 49 54 48 41 37 34 31 32 32 31 33 35 34 34 37 39 40
90 87 87 87 92 98 100 100 100 100 100 101 100 100 101 99 98 102 98 88 88 93 90 81 72 66 61 53 45 44 47 48 49 51 52 53 55 55 57 60 63 67 72 77 80 79 75 70 64 61 62 69 73 69 63 62 65 62 52 43 40 42 44 47 52 55 52 46 43 44 47 49 44 39 36 33 30 31 32 29 31 34 34 35 37 38 41
96 93 90 89 94 100 100 99 101 100 99 101 100 99 99 96 93 98 99 93 92 93 90 87 81 67 54 49 47 45 44 46 49 52 52 52 53 52 53 56 58 62 71 78 81 79 73 67 62 57 57 67 78 78 71 66 63 55 45 39 39 39 40 41 45 50 51 49 45 45 45 44 41 40 38 34 30 30 31 30 30 32 33 34 36 37 39
100 98 94 91 93 98 100 100 101 100 100 101 99 93 93 90 86 88 95 98 98 93 87 84 80 67 54 49 47 44 43 44 45 48 49 51 52 51 52 54 56 61 70 76 75 72 70 68 65 58 52 60 75 77 71 70 69 59 46 41 41 40 40 41 42 45 47 46 44 44 44 42 41 41 38 33 30 30 32 32 29 31 35 36 35 36 38
100 100 95 89 87 91 96 99 100 100 100 100 95 88 87 88 86 87 94 100 99 93 87 86 84 72 59 51 44 42 45 47 47 47 48 50 52 53 53 54 55 56 60 66 70 68 64 64 65 59 54 62 76 79 77 81 80 67 51 46 45 42 41 42 42 41 40 39 41 44 46 43 41 39 37 33 30 29 31 30 28 31 38 39 35 36 37
100 100 99 95 92 93 98 100 101 100 100 101 97 89 83 82 84 91 98 101 98 91 84 85 87 79 64 52 46 45 48 51 53 54 52 49 50 54 55 56 56 56 60 67 72 68 59 57 62 61 55 59 71 78 79 76 68 57 50 48 47 43 41 40 40 39 39 38 39 44 47 45 40 37 35 33 31 29 30 29 27 29 34 38 39 39 39
100 99 100 100 98 99 101 100 100 100 100 100 98 93 85 81 85 95 101 97 92 89 82 80 84 81 68 56 51 50 52 53 59 66 65 57 53 56 60 63 67 69 69 67 67 67 61 57 60 64 59 55 65 80 84 71 55 49 48 47 45 44 43 40 40 41 41 40 39 39 39 40 40 39 38 34 30 28 28 27 28 30 33 36 38 40 40
99 100 101 100 100 101 101 99 100 101 100 98 98 96 90 82 82 92 95 88 86 89 85 80 82 83 78 70 63 59 58 57 60 69 72 68 64 62 63 68 75 75 67 61 63 69 66 60 62 68 66 64 74 86 83 67 54 50 49 46 43 44 44 43 44 45 44 43 42 39 38 40 40 40 38 33 28 28 29 27 28 31 32 34 37 39 40
99 100 100 100 100 100 100 100 100 99 97 96 97 97 92 84 82 89 90 86 87 89 83 77 78 79 79 75 65 59 61 60 55 58 67 71 69 64 64 72 77 68 57 58 66 68 61 55 62 72 72 70 75 73 61 53 52 50 47 44 42 42 44 45 47 48 48 47 45 45 47 50 45 37 34 32 28 27 29 29 29 31 32 34 37 38 38
100 100 99 101 101 98 96 97 98 97 95 93 92 93 93 90 92 98 97 92 92 90 87 87 83 71 66 67 61 55 58 56 51 56 69 74 68 60 62 74 77 68 63 67 67 61 53 51 62 75 75 67 63 55 46 45 47 44 41 41 39 39 42 44 44 46 48 48 46 45 47 51 48 39 34 33 31 30 31 31 31 31 33 34 35 36 38
99 100 100 99 94 87 86 92 96 97 96 91 88 92 94 90 90 94 93 90 91 88 85 89 86 69 61 65 63 57 56 58 60 65 69 67 64 61 64 69 68 67 74 74 58 48 52 56 61 70 69 58 50 47 44 43 43 40 39 40 38 37 40 42 44 50 53 52 49 46 44 48 52 49 43 40 37 34 33 33 31 30 31 33 34 35 38
100 101 99 95 89 85 88 94 96 95 92 87 83 84 85 83 85 85 79 77 82 82 77 79 77 67 63 68 65 55 53 62 73 76 71 67 69 70 70 71 68 71 81 76 52 43 55 62 62 68 68 56 48 47 44 40 40 39 37 38 38 39 43 46 49 55 56 53 51 48 48 56 66 64 56 53 52 45 38 35 34 32 32 33 34 35 37
99 98 91 86 88 94 98 100 98 92 86 82 79 78 80 83 84 79 71 73 78 73 65 64 62 56 57 65 64 58 57 64 72 76 75 74 72 70 72 72 69 74 84 76 50 42 52 57 57 62 61 51 43 41 38 36 36 35 35 37 39 41 44 45 46 48 48 48 46 42 40 50 66 69 59 53 53 50 43 40 38 35 33 34 35 36 38
98 95 88 85 92 101 101 97 91 83 77 77 79 82 84 85 79 69 69 80 82 65 50 51 55 53 53 57 59 62 67 70 70 74 79 78 74 77 80 73 67 77 88 74 47 40 49 54 55 56 49 40 35 33 32 32 33 34 35 37 37 39 40 38 37 38 39 40 40 37 33 39 54 64 58 47 44 45 45 44 41 36 34 36 36 37 38
98 95 92 93 98 99 95 89 83 78 76 80 85 86 83 80 76 72 70 72 68 54 44 45 50 52 53 54 54 59 69 73 71 74 80 79 75 77 79 73 73 86 86 62 42 43 52 56 58 54 42 35 34 33 32 34 35 35 35 35 35 37 37 35 35 37 36 34 34 35 34 35 40 47 51 50 46 43 43 43 40 36 35 35 35 36 37
99 96 93 92 91 90 88 84 78 77 81 87 91 91 85 78 74 71 65 56 49 46 45 46 49 52 54 55 57 68 81 85 78 75 78 77 73 76 82 82 82 81 67 48 46 56 60 58 57 49 37 32 33 32 32 35 36 34 34 34 34 35 35 34 36 38 37 35 34 33 35 36 35 35 42 47 45 40 38 37 36 35 35 35 36 36 37
100 94 86 82 80 82 85 81 75 78 88 91 88 87 86 78 68 62 56 49 45 43 44 47 52 58 58 55 59 72 82 81 76 76 79 76 74 81 91 89 74 60 52 50 56 61 58 53 49 41 34 33 33 33 35 38 37 37 36 33 33 34 34 33 36 37 37 37 36 33 33 35 34 32 34 36 35 34 35 35 34 34 35 37 39 37 36
95 88 84 86 86 82 80 78 76 80 85 82 74 71 70 64 55 50 47 43 40 40 44 46 50 57 63 63 63 66 68 71 77 81 80 78 81 86 84 71 56 52 58 64 64 62 61 56 46 38 35 36 35 35 37 38 37 38 37 34 33 36 35 34 36 38 38 39 38 35 35 36 34 33 33 32 31 33 34 34 35 36 38 41 40 36 37
88 77 78 91 94 81 72 74 80 80 73 63 57 57 54 46 39 38 41 43 42 44 49 51 51 56 66 71 69 64 62 69 78 77 73 79 89 82 64 56 61 69 75 75 71 66 61 52 40 35 37 39 37 37 38 38 36 36 36 36 37 37 37 37 37 36 36 37 37 36 36 36 34 34 34 32 32 33 34 33 35 38 41 42 40 37 39
87 72 73 89 93 81 72 72 69 62 53 44 40 40 39 36 34 34 37 40 41 43 47 51 55 59 63 68 71 67 61 65 75 73 69 77 84 72 59 67 81 82 79 79 75 63 50 42 40 41 42 41 40 40 40 41 41 38 37 39 39 36 35 37 37 35 36 37 36 36 37 36 36 36 35 34 34 35 35 36 39 41 43 43 39 38 40
84 71 77 90 89 77 71 67 58 47 42 40 36 31 30 31 33 33 33 35 39 44 48 53 59 65 65 67 73 72 67 71 81 77 69 72 80 78 78 87 88 75 67 67 63 49 39 41 48 50 43 39 41 41 40 42 45 42 38 40 40 38 37 38 36 35 36 36 36 38 38 36 36 36 35 35 37 36 34 38 42 43 43 42 40 38 40
87 78 78 81 75 62 54 52 49 45 40 36 33 31 31 31 31 32 31 33 40 47 51 54 62 68 66 67 75 80 78 80 84 79 74 82 90 86 81 84 82 71 61 53 46 40 37 38 42 44 41 38 40 41 41 46 51 47 40 39 40 39 39 39 37 36 36 35 35 37 37 36 37 37 35 35 37 35 35 42 48 46 41 39 38 38 39
90 87 83 78 72 63 52 47 47 46 40 33 30 29 30 30 30 30 30 33 41 53 61 64 66 66 63 67 80 85 78 72 73 74 78 86 86 77 73 77 73 62 50 41 35 35 35 32 34 41 43 42 42 42 42 47 50 47 43 42 41 39 38 38 37 37 37 36 35 36 36 35 36 36 36 37 37 35 37 45 50 46 40 37 37 38 39
87 89 84 75 69 63 53 48 48 46 39 34 33 31 30 31 32 33 34 36 44 59 69 68 65 67 73 81 87 81 66 58 64 71 73 69 65 66 73 73 61 46 40 37 33 33 32 32 35 41 43 41 43 45 45 46 47 46 45 44 43 40 39 38 37 36 37 37 36 37 36 36 36 37 36 36 37 38 43 47 46 42 39 38 37 38 39
85 85 78 68 61 59 56 53 51 46 40 38 37 35 33 32 31 34 40 46 51 59 62 60 63 76 85 82 72 62 57 59 67 73 69 59 53 54 58 54 44 37 35 34 32 31 32 34 39 47 49 45 44 45 46 45 44 44 44 43 42 40 41 40 38 37 36 35 35 36 36 36 36 37 38 38 39 41 45 47 44 41 40 38 37 38 40
Wind_Speed
20 21 20 20 21 22 24 26 27 32 34 29 24 18 7 4 7 8 3 3 2 3 3 4 4 4 5 7 9 7 4 7 9 5 3 3 2 2 4 5 5 4 4 5 7 7 6 8 7 6 7 4 4 2 6 4 3 4 6 5 4 3 4 5 7 7 9 10 5 2 4 7 7 7 6 5 5 5 6 6 5 5 7 6 6 6 1
18 18 19 19 19 20 22 24 25 27 29 27 22 12 5 5 8 8 4 4 3 3 3 3 3 4 6 7 7 8 6 7 9 7 5 3 3 4 5 4 3 4 5 6 7 6 4 7 7 7 7 4 6 8 1 5 2 4 3 4 4 3 4 3 5 7 6 5 2 2 3 3 3 5 7 7 8 9 8 7 5 6 7 6 5 5 1
16 16 17 18 18 18 20 22 22 24 25 25 17 8 6 6 6 5 4 6 5 4 2 2 4 4 6 6 7 9 6 5 7 9 9 7 4 4 5 5 4 6 7 7 8 7 5 6 7 7 8 4 5 7 2 6 4 3 2 3 4 4 5 5 5 6 6 4 2 3 3 2 2 5 9 10 10 10 9 6 5 6 7 6 6 5 3
16 16 16 17 17 17 18 20 21 22 23 23 17 9 6 5 4 5 3 5 4 4 2 2 3 3 4 4 6 9 8 7 7 7 8 7 4 3 5 6 6 7 6 7 8 8 8 8 7 8 8 6 7 6 3 7 9 5 9 2 4 5 6 7 8 8 8 9 9 8 8 8 8 9 11 12 11 10 9 6 6 7 7 7 7 7 7
15 15 15 16 16 16 17 18 20 21 21 21 15 8 5 3 4 6 4 2 4 4 3 3 3 2 4 3 3 7 8 9 8 5 6 7 5 4 5 4 4 5 6 6 7 9 9 8 8 9 9 8 9 10 11 13 6 9 10 4 3 4 7 9 9 10 11 13 14 13 11 11 12 13 13 13 12 11 10 9 9 8 7 7 7 7 9
16 15 14 14 15 15 16 17 19 20 20 18 12 6 4 4 5 6 6 3 5 5 3 3 3 5 5 3 3 6 8 9 8 6 6 8 6 4 4 4 5 6 6 6 7 8 9 8 7 8 8 9 9 9 12 9 3 7 5 3 2 4 7 8 9 11 13 14 15 14 13 12 13 13 14 14 13 13 12 12 13 11 8 9 10 9 10
16 15 13 12 13 13 14 17 17 18 18 14 8 5 4 5 5 6 7 5 7 9 6 4 5 6 5 3 4 6 8 7 7 7 7 7 7 6 6 7 7 8 8 7 6 7 8 8 8 8 8 9 7 6 10 8 1 4 7 3 1 3 5 7 10 11 13 14 15 15 14 13 13 13 14 14 14 13 13 13 14 13 13 13 14 14 11
16 15 13 12 12 12 13 16 16 16 17 12 6 6 5 5 4 5 7 7 8 9 7 5 6 6 5 5 6 7 7 7 6 6 6 6 7 7 9 8 7 8 9 8 8 8 8 9 10 9 9 9 7 6 6 6 7 9 7 2 1 2 4 8 9 9 11 13 13 13 12 11 13 15 15 15 14 14 13 12 12 12 13 13 13 14 10
15 14 14 13 12 12 13 15 14 13 13 10 6 5 6 7 7 7 6 6 7 8 7 5 6 7 6 5 5 5 6 6 6 6 7 8 8 6 8 9 7 7 9 10 9 9 9 10 11 10 10 9 8 7 5 5 7 9 7 4 4 4 5 8 8 8 9 11 12 13 11 11 14 15 15 14 12 11 10 10 10 10 11 11 9 9 7
15 14 14 14 13 13 13 14 13 9 8 7 6 6 8 9 8 7 5 5 6 7 8 6 6 6 4 3 4 6 7 7 7 6 5 8 9 5 7 9 7 6 9 10 10 11 11 12 12 10 11 11 10 9 10 10 9 8 7 6 3 4 5 6 7 8 8 10 13 13 11 11 11 8 6 6 7 7 7 8 9 8 9 9 7 6 5
14 15 15 15 14 13 13 13 12 8 5 5 5 6 8 9 7 5 4 6 6 6 7 7 6 5 3 3 5 7 9 9 8 6 5 7 9 8 8 9 7 5 8 10 10 11 12 13 13 12 12 14 13 12 13 14 12 10 9 7 6 7 7 6 6 7 8 11 13 12 10 9 5 2 3 4 4 5 6 8 9 8 7 7 7 8 7
14 15 16 16 14 13 12 12 11 8 5 3 5 6 7 8 6 4 4 5 7 7 7 6 6 6 6 5 6 7 9 10 9 8 8 9 11 10 9 10 8 6 7 10 12 12 12 13 14 14 14 15 14 14 15 15 14 12 11 9 8 7 7 6 6 6 7 9 9 9 8 5 2 3 5 4 3 2 5 8 9 9 8 9 9 10 8
13 14 15 15 14 12 12 12 11 9 6 3 5 7 6 6 5 4 3 5 6 6 7 7 7 7 7 6 7 7 10 11 10 10 10 10 11 11 9 9 9 8 8 10 12 12 10 10 11 13 13 12 12 13 15 17 16 14 14 12 10 8 6 5 6 7 7 7 6 7 7 7 9 11 7 2 3 1 5 7 7 7 8 8 8 8 7
12 12 12 13 13 12 12 12 12 10 7 5 5 6 5 4 4 3 3 4 6 6 7 8 8 7 7 7 7 8 9 10 10 9 9 9 10 11 10 9 10 10 10 9 9 7 5 5 6 8 8 7 6 8 11 13 14 16 15 13 10 9 7 5 6 7 7 7 7 7 8 9 10 7 3 5 3 3 4 4 7 8 8 8 7 5 4
12 12 12 12 12 12 12 12 12 10 8 7 6 6 6 4 4 5 4 4 6 7 6 5 7 8 7 7 7 7 7 8 8 8 9 9 9 9 10 10 10 10 10 7 6 5 4 4 5 6 5 5 3 4 5 6 8 11 12 10 9 9 8 5 4 5 5 7 8 7 8 9 5 0 3 4 3 4 3 4 7 5 4 4 4 2 2
12 12 12 11 11 11 12 12 13 11 9 8 7 6 7 6 5 6 5 4 5 5 4 4 6 7 6 6 7 7 7 6 6 7 7 8 8 9 9 9 8 9 9 6 5 5 4 4 6 6 5 6 5 4 4 5 4 4 6 7 8 8 7 6 5 4 5 7 7 6 7 7 3 1 3 3 4 4 1 4 3 3 5 4 2 2 2
12 12 12 12 11 11 11 12 13 12 11 10 8 6 7 7 6 5 5 4 5 6 7 8 7 5 5 6 6 6 5 5 5 4 4 6 8 9 8 7 6 8 9 6 4 5 5 5 6 6 6 6 6 5 5 5 4 2 3 5 6 6 5 5 5 5 6 7 8 7 6 6 7 6 1 5 6 3 3 4 1 3 4 4 3 4 4
11 11 12 12 12 11 12 13 13 13 12 11 9 7 7 7 6 6 5 4 5 7 7 6 6 7 6 6 7 5 3 3 4 3 4 6 6 6 6 6 5 5 6 5 4 5 5 5 6 6 6 6 6 6 5 5 4 4 4 4 5 5 4 5 6 6 6 7 8 7 5 6 9 6 4 8 4 1 5 4 1 2 3 3 3 4 4
12 12 12 12 12 12 12 13 14 13 12 11 9 8 8 8 8 8 6 5 5 6 6 3 2 6 7 6 7 6 4 4 4 3 4 4 3 6 7 5 4 4 4 4 4 4 4 5 6 5 5 6 5 4 5 6 5 5 5 6 5 4 4 5 6 6 6 6 7 6 5 4 4 5 8 7 1 4 3 1 2 1 3 3 3 4 4
13 13 13 12 12 12 12 14 15 14 13 12 11 9 8 8 9 10 9 6 5 7 9 9 8 9 9 7 8 8 6 5 4 4 4 4 3 6 6 3 2 3 3 4 4 4 4 5 5 4 3 4 3 2 4 7 8 7 7 6 6 5 5 5 6 5 5 6 7 6 5 1 4 4 3 4 3 3 4 2 2 3 5 4 4 5 4
12 13 13 12 12 13 13 14 16 16 15 14 13 10 8 8 9 11 11 8 6 5 7 9 10 11 11 10 12 12 10 9 8 5 5 4 2 2 2 2 1 2 2 2 3 3 2 3 4 3 4 4 2 2 5 6 7 7 6 5 4 5 6 6 5 4 4 6 6 4 2 2 2 1 3 3 4 5 4 3 4 4 4 5 5 4 3
15 14 13 12 12 13 13 14 16 18 17 16 15 11 9 9 9 10 10 9 8 9 10 13 16 16 16 16 16 16 14 12 10 6 3 3 2 3 4 5 4 1 0 1 3 3 2 3 3 4 5 5 4 4 6 6 6 7 6 3 2 3 4 5 4 4 5 6 6 6 7 7 5 5 5 7 8 7 5 6 6 5 5 5 5 5 3
16 16 15 13 13 13 13 15 17 19 20 19 17 14 11 9 8 8 8 8 9 11 15 18 18 16 16 17 17 17 17 15 13 10 6 4 3 3 4 5 4 2 1 1 2 4 3 3 3 3 4 5 5 4 5 5 6 7 6 5 6 8 7 5 5 7 8 8 10 11 11 9 8 7 6 7 8 6 6 8 8 7 7 6 5 6 4
14 16 16 16 16 15 15 16 18 20 21 22 21 18 13 9 9 9 7 5 5 6 9 11 9 9 11 12 12 13 15 15 15 15 13 10 6 3 3 3 1 2 2 2 1 3 3 2 2 3 4 5 4 4 5 5 6 6 6 6 8 6 4 3 6 9 8 7 8 11 10 7 8 10 10 10 10 8 7 6 6 7 8 7 5 5 4
13 14 15 16 17 17 16 16 18 19 20 22 24 22 17 12 12 13 9 4 2 2 4 6 6 9 12 12 11 10 11 12 13 14 15 15 13 9 7 6 5 5 5 2 1 1 3 3 3 5 6 5 4 4 4 5 7 7 7 7 7 3 4 4 8 9 8 9 11 13 12 11 11 12 11 11 11 9 6 5 6 7 7 5 4 4 4
13 13 13 13 14 14 15 16 17 19 19 20 23 25 22 16 14 16 12 3 1 2 4 5 6 8 8 8 9 10 9 9 11 12 14 16 17 16 14 12 11 9 7 4 2 2 3 4 5 6 6 4 3 4 5 6 8 9 9 8 7 6 5 7 10 9 9 11 12 13 13 12 12 12 10 7 6 6 7 6 7 7 7 5 5 6 4
13 14 14 14 13 13 14 15 16 18 18 18 21 25 25 18 14 16 15 8 2 1 4 5 5 7 9 11 15 16 13 12 12 12 13 15 15 16 15 12 9 8 7 5 3 2 2 4 6 7 7 5 4 5 7 8 9 9 10 9 7 7 8 9 9 9 8 9 10 11 10 8 8 10 10 8 7 8 9 8 7 7 6 4 4 6 5
13 13 14 14 14 13 13 14 15 16 17 16 17 21 24 22 19 18 17 15 9 3 4 5 7 10 13 14 14 13 13 13 14 13 14 14 15 15 15 12 9 7 6 5 3 2 4 6 6 6 5 4 5 6 7 8 8 9 10 9 8 8 9 8 9 9 9 11 13 11 7 5 8 11 12 11 10 10 10 9 7 7 7 6 5 6 6
13 13 13 13 13 13 12 13 13 14 14 12 11 14 18 21 23 21 19 20 16 6 4 5 7 8 9 10 10 10 10 11 12 14 14 14 14 15 14 12 9 7 5 4 3 4 6 5 5 5 3 1 2 6 6 7 9 10 11 11 10 9 10 11 13 14 14 14 14 12 10 10 12 13 13 11 9 10 11 10 7 6 7 6 6 6 6
13 13 12 12 12 11 9 10 11 11 12 11 9 8 8 11 18 24 23 22 19 10 2 3 4 5 7 10 12 13 12 11 11 13 14 14 13 13 13 11 8 6 5 3 4 5 5 4 5 6 4 5 3 3 5 7 9 11 12 13 12 11 11 12 13 12 12 12 13 13 14 14 13 12 12 10 9 9 10 9 7 5 6 7 6 6 6
11 11 11 10 9 8 7 9 10 11 13 15 10 4 1 2 8 17 22 23 20 11 2 3 4 4 6 8 9 9 10 10 11 12 14 13 12 13 14 11 8 6 5 4 4 5 5 4 5 7 6 6 5 3 6 7 9 13 14 12 9 10 12 11 10 10 10 11 13 14 15 13 11 11 11 10 9 9 8 8 7 5 4 5 7 7 6
9 9 9 9 9 9 8 9 10 12 17 19 12 3 2 2 2 6 17 23 19 8 1 2 3 4 4 4 4 5 6 7 8 8 10 10 10 10 11 10 8 7 7 5 4 5 5 5 6 8 7 4 4 2 7 8 10 15 16 11 8 10 12 11 11 12 12 12 13 14 13 12 12 11 9 9 11 10 7 8 9 6 7 6 7 9 7
8 8 8 9 10 10 9 10 11 14 18 19 14 6 2 2 1 6 17 20 13 5 2 2 2 3 3 4 5 3 3 4 4 5 6 7 6 6 7 7 6 7 6 5 3 3 4 5 6 8 7 4 3 4 8 12 15 17 16 13 12 13 14 14 13 13 12 12 13 13 12 11 11 10 9 9 10 9 7 8 9 6 6 7 7 8 7
7 7 7 7 8 9 8 8 10 13 14 14 13 10 4 1 2 12 21 17 8 2 2 2 2 3 3 5 5 1 4 3 4 3 3 4 4 4 4 4 3 3 5 6 4 4 5 5 5 6 7 6 6 6 9 14 17 17 15 15 15 14 14 14 13 11 11 12 12 13 12 10 10 10 11 12 11 9 8 8 7 7 8 8 7 7 7
6 6 6 5 5 5 5 6 9 11 11 9 8 9 9 3 4 16 22 14 5 1 2 2 3 3 3 6 5 1 3 3 4 3 2 2 2 3 2 2 2 3 5 5 5 6 6 5 5 6 7 6 6 6 8 14 17 16 15 15 15 13 14 13 11 10 11 11 11 11 11 11 12 13 13 14 12 10 9 10 8 8 9 8 7 8 7
6 4 4 2 1 3 3 6 9 9 7 5 4 6 9 5 7 17 21 11 2 2 3 2 4 4 3 5 5 0 1 3 5 3 2 1 1 3 3 2 4 4 3 4 6 7 6 5 4 5 6 7 8 9 10 14 17 17 16 16 13 12 13 13 12 12 13 13 13 12 10 10 14 14 12 12 11 9 9 10 9 9 9 9 8 8 7
5 1 2 4 5 4 2 4 7 5 5 6 8 9 9 7 7 13 14 7 4 3 2 2 5 5 5 6 4 1 2 3 3 2 2 1 2 3 3 3 4 3 2 5 7 7 6 6 5 7 8 9 11 12 13 15 16 16 16 15 13 11 12 12 12 13 14 14 15 14 11 10 12 12 11 11 10 8 8 9 8 8 9 10 9 7 8
1 4 5 4 4 2 0 2 4 4 6 12 13 10 6 4 3 4 5 3 3 3 3 4 6 6 6 7 4 3 2 2 2 1 2 2 2 3 3 3 3 2 3 5 6 6 6 5 6 8 11 11 13 16 17 16 15 15 14 13 11 11 10 10 11 12 13 13 12 12 11 10 9 9 11 11 8 7 7 7 6 6 7 8 8 8 9
4 4 3 3 2 1 2 4 7 10 12 13 8 2 1 1 1 2 2 2 3 3 4 5 7 7 8 9 7 5 3 3 3 3 2 1 1 2 2 2 1 1 3 5 4 4 6 5 4 7 10 10 12 16 18 16 14 13 12 10 9 8 8 9 9 10 11 11 10 11 11 8 6 7 9 8 6 7 8 6 4 4 5 7 9 9 9
4 3 3 2 0 3 6 11 14 12 9 4 0 1 1 2 2 2 2 3 3 4 4 5 6 7 8 10 9 6 4 4 4 3 2 1 1 1 2 2 1 1 4 5 3 3 5 5 5 7 9 8 9 12 13 12 11 9 8 7 8 8 9 10 9 9 10 11 11 12 13 9 8 9 10 10 9 8 8 7 5 5 6 8 8 8 9
2 3 2 1 4 7 11 13 10 5 2 0 1 1 2 3 2 2 2 4 4 4 4 5 6 6 7 8 8 5 4 3 1 1 0 1 1 1 2 2 0 2 5 5 3 3 5 6 6 8 9 9 10 10 9 8 8 7 7 7 7 6 7 8 8 8 10 10 9 10 12 10 7 7 8 11 10 8 6 5 6 7 8 8 9 10 11
4 2 1 4 7 8 8 6 2 0 0 1 1 2 2 3 3 3 3 4 4 4 4 5 6 4 4 6 6 4 2 2 1 1 1 2 1 2 3 2 1 3 5 4 3 4 5 6 7 8 8 8 10 10 8 7 7 7 7 8 6 4 5 7 8 9 11 11 9 8 9 9 6 5 7 9 10 9 8 8 8 8 9 11 12 12 12
1 3 4 5 5 4 2 2 2 1 1 2 2 2 3 3 3 3 3 3 4 4 4 4 2 1 2 4 3 0 2 2 1 1 2 2 1 1 3 3 3 3 4 3 4 5 6 7 8 8 8 8 9 8 7 7 7 7 7 7 6 5 6 7 7 9 10 12 12 10 8 8 8 7 9 10 11 11 11 10 9 9 10 11 12 12 10
3 5 3 2 2 2 2 1 2 3 3 4 3 4 4 4 5 5 6 5 4 4 4 4 4 3 3 3 2 1 2 1 1 1 2 2 2 2 3 4 4 3 4 4 5 6 6 7 8 9 9 8 8 7 7 7 6 6 7 7 6 7 8 7 6 7 8 9 11 11 8 7 8 8 8 10 10 10 8 6 6 7 8 11 12 12 11
4 3 3 2 2 2 2 1 2 3 4 4 4 5 6 6 6 7 6 4 4 4 4 4 4 4 3 2 1 2 2 1 1 2 2 2 2 3 3 3 3 3 4 5 5 6 7 7 8 8 9 9 8 7 7 7 6 6 7 7 6 7 8 8 7 6 5 6 8 9 8 7 6 7 8 10 10 10 9 6 6 8 9 11 12 12 11
3 2 2 2 3 2 2 3 3 4 4 4 6 7 7 8 8 6 2 1 4 5 4 4 4 4 3 2 1 2 2 2 2 3 3 2 3 3 3 3 3 3 4 5 6 7 8 9 8 7 6 8 8 8 8 6 5 6 7 7 6 6 7 8 8 7 6 6 7 7 6 7 7 8 9 11 11 11 10 8 7 10 12 12 12 12 12
2 1 2 3 3 3 4 5 5 5 4 5 7 7 7 8 8 6 3 2 4 4 4 3 3 4 3 2 1 2 3 3 3 3 3 3 3 3 2 3 4 3 4 7 8 8 8 8 6 4 4 6 8 9 7 6 6 7 7 6 7 7 7 7 8 8 7 8 8 7 6 7 8 9 10 10 10 10 9 7 9 12 13 12 12 12 13
2 2 3 3 2 4 5 6 6 6 7 8 8 9 8 8 8 7 6 4 3 4 4 4 3 3 2 2 3 3 3 2 3 3 2 2 3 3 2 4 5 5 6 7 8 8 8 6 2 2 4 5 7 8 7 5 5 7 7 7 6 7 8 8 8 8 8 8 8 7 7 8 9 10 10 9 8 9 9 10 12 15 15 13 13 13 14
3 2 3 3 3 4 6 7 7 8 8 8 8 9 9 9 8 7 5 4 3 3 2 1 2 2 2 3 3 3 3 3 3 2 2 3 4 3 3 5 7 7 7 7 8 8 8 6 3 4 6 5 5 6 6 5 5 5 7 7 6 6 7 8 8 9 9 8 7 7 8 9 10 10 9 8 8 9 9 9 11 13 15 15 14 14 15
4 3 3 4 5 6 6 6 8 9 8 8 8 8 8 8 8 7 5 4 3 2 2 2 2 3 3 3 3 3 4 4 3 4 5 5 5 4 5 7 8 7 6 7 7 7 7 6 5 7 7 5 4 5 5 4 3 5 6 6 7 7 8 9 9 9 9 10 11 11 11 10 10 10 9 9 9 8 7 9 12 14 15 15 15 15 15
4 3 3 6 8 8 7 7 8 9 8 8 8 7 7 8 8 4 2 2 3 4 4 4 3 3 3 4 4 3 3 3 4 5 6 6 4 5 7 9 9 7 7 8 8 7 7 6 6 7 7 6 5 5 5 4 4 5 6 7 8 9 9 9 10 10 10 11 12 12 11 11 12 12 12 12 10 7 6 9 13 15 14 14 15 16 15
4 4 5 6 8 9 9 9 9 9 9 9 9 8 8 9 7 2 2 3 5 6 5 5 4 4 4 4 4 3 3 4 5 7 7 6 5 6 8 9 9 9 9 9 8 7 7 7 6 7 8 8 7 6 6 7 7 6 7 8 9 9 9 9 10 11 11 11 12 12 12 12 12 12 11 11 9 7 6 8 13 15 15 15 16 16 15
Wind_Direction
312 318 320 322 329 335 340 347 353 354 355 357 349 334 306 267 304 308 281 229 261 269 269 284 281 292 316 319 317 322 321 306 307 302 269 269 275 269 273 285 290 287 294 298 293 300 301 281 278 283 278 311 6 75 108 72 319 283 276 289 11 346 274 269 278 272 265 261 263 288 287 295 296 282 282 289 285 282 282 293 307 294 291 300 293 288 262
311 316 317 318 323 329 334 341 350 354 356 356 345 327 311 308 298 286 245 196 231 258 265 300 308 327 335 329 318 311 300 294 301 301 292 289 291 278 280 291 294 296 295 284 285 295 292 281 283 284 283 325 341 312 39 93 292 282 310 344 359 318 281 278 284 284 265 235 225 270 264 289 313 289 291 293 284 284 287 287 283 271 281 293 287 288 290
308 313 316 318 319 325 329 333 344 352 353 353 346 319 301 303 281 266 219 191 228 267 282 318 300 316 343 350 336 319 308 303 306 305 299 290 280 284 299 302 288 284 282 280 286 282 269 282 290 288 287 283 292 294 131 134 241 251 77 8 324 295 293 293 282 282 274 260 292 325 307 306 274 265 278 278 275 280 283 284 278 272 284 289 276 286 287
304 309 315 317 316 320 324 325 336 347 350 351 344 309 295 311 296 297 268 198 232 259 224 238 260 300 352 3 338 325 323 318 313 307 298 292 286 289 303 310 301 295 296 297 296 284 271 274 274 278 285 282 292 297 254 254 261 178 142 188 286 283 277 271 267 271 277 285 301 317 315 301 287 282 280 274 270 272 272 272 267 273 294 288 265 272 282
299 306 310 313 315 319 320 318 328 341 348 350 339 298 269 294 299 315 329 292 280 278 247 249 254 299 341 350 327 322 319 314 315 309 294 306 325 306 290 297 296 305 318 311 297 289 282 274 273 280 282 285 297 294 281 282 266 152 156 193 236 260 265 265 268 271 274 282 289 292 290 283 283 286 284 280 277 270 263 261 264 277 290 275 273 295 297
296 305 307 309 314 320 320 317 322 334 345 350 341 299 267 295 304 341 4 326 288 304 336 341 311 296 298 296 297 299 297 299 306 307 303 309 318 308 289 287 287 301 320 316 302 302 301 294 293 293 287 291 305 303 291 289 154 155 224 251 219 264 274 272 275 275 274 277 278 276 274 273 277 281 281 280 277 269 263 261 262 268 270 270 285 298 290
297 303 303 304 310 316 318 315 316 329 343 346 328 294 313 325 316 346 3 333 292 301 321 334 304 280 272 276 280 277 279 286 297 307 310 307 308 306 294 294 305 315 317 308 297 301 303 303 306 309 303 295 297 298 294 296 264 245 269 282 331 291 274 269 275 278 279 280 279 280 282 284 285 283 279 277 276 271 266 264 265 265 265 271 282 281 277
295 298 295 296 304 309 311 310 311 325 340 339 301 274 306 330 330 336 339 322 298 292 291 289 284 273 262 264 269 271 275 286 298 305 305 304 313 314 298 299 319 323 311 298 296 306 309 305 304 304 302 294 283 275 278 288 301 292 275 227 171 237 267 286 291 286 283 283 281 282 289 295 293 287 282 280 278 274 269 266 266 265 265 273 284 286 284
291 292 291 292 298 302 305 306 306 321 341 338 306 297 317 325 327 324 308 299 303 296 282 272 272 274 272 268 271 272 274 285 295 297 291 283 285 301 311 319 332 326 309 301 304 316 311 296 292 289 284 279 273 270 265 268 291 296 283 245 191 196 256 288 291 283 284 286 285 288 295 295 286 282 283 282 277 277 281 277 271 269 271 275 278 280 284
289 289 288 288 291 294 298 298 296 311 336 328 304 316 332 330 326 324 305 287 295 297 290 282 274 276 284 277 269 264 263 275 287 291 288 277 277 303 333 329 328 319 307 304 309 315 306 293 292 288 280 277 271 263 258 256 263 276 283 279 248 240 269 287 287 285 288 290 294 302 307 296 287 280 286 297 294 294 299 295 290 289 282 275 269 270 288
291 291 287 284 285 287 288 287 286 292 308 309 303 313 330 333 324 318 305 282 280 286 284 277 275 289 316 314 291 283 279 283 288 288 292 294 298 314 319 309 306 298 292 295 298 300 298 296 294 285 276 275 272 266 260 253 249 251 262 271 268 267 275 283 283 283 286 291 298 303 293 285 284 216 219 266 285 291 297 297 298 297 281 268 267 273 288
293 291 287 283 280 279 277 274 274 274 270 284 293 293 318 337 323 299 294 286 287 289 282 283 307 329 333 315 299 295 288 288 292 289 286 292 296 296 293 291 290 280 283 294 301 301 301 300 295 284 272 262 256 255 255 251 247 245 247 252 256 260 264 269 273 272 277 288 294 286 274 279 307 269 257 247 221 259 305 298 292 288 280 276 273 276 288
292 290 287 284 280 274 269 264 262 263 258 252 265 274 303 337 319 291 294 286 280 281 285 301 323 326 316 308 306 303 294 292 297 295 288 286 288 287 285 282 280 283 289 298 307 310 308 305 298 289 278 261 246 244 244 243 243 241 239 241 244 245 246 256 267 268 269 274 274 267 275 303 310 300 308 56 117 336 324 304 300 304 295 286 282 284 300
296 295 291 287 282 272 263 258 254 253 247 234 245 266 285 300 285 283 304 287 277 285 291 297 306 301 294 304 314 315 306 297 296 297 293 287 283 284 284 281 285 294 297 297 303 303 295 299 300 294 288 272 248 246 246 240 237 238 238 238 239 241 239 237 250 263 270 273 270 269 281 296 301 302 358 61 57 4 359 315 298 297 283 278 285 286 290
298 295 291 287 283 273 260 252 248 247 239 230 239 257 264 260 263 278 291 285 284 293 292 298 327 334 324 313 314 316 310 301 300 303 300 290 281 278 282 285 288 291 289 284 287 287 281 286 290 294 299 294 284 282 272 252 236 232 234 238 243 250 252 247 250 263 275 277 273 273 278 281 281 50 70 49 46 60 45 306 293 296 286 289 304 305 296
298 294 290 287 283 274 262 249 244 243 235 226 229 248 257 250 247 262 274 277 278 284 289 315 347 350 331 313 313 309 297 294 304 309 302 292 286 287 292 290 278 274 276 279 283 280 272 273 281 288 291 290 298 305 290 278 259 205 203 224 241 252 259 263 266 267 269 269 268 269 269 270 284 78 121 115 88 82 355 286 297 20 41 35 7 332 322
292 290 288 285 280 272 261 250 243 240 234 225 223 241 256 246 236 245 255 259 259 264 281 296 305 309 300 295 297 294 292 298 299 290 286 291 296 300 305 304 279 260 262 271 277 269 260 259 269 276 278 285 297 296 284 286 283 237 202 220 233 239 247 252 249 248 250 251 255 265 268 276 301 312 230 130 106 87 293 283 301 33 27 33 10 333 328
284 285 285 285 280 270 258 248 241 237 233 226 220 237 251 242 232 237 246 258 262 264 278 291 289 286 292 298 295 290 298 305 291 277 279 283 287 301 315 324 311 273 253 253 266 272 274 270 264 270 278 284 290 290 287 289 282 265 257 250 237 227 226 231 236 243 246 245 251 263 269 284 303 317 103 113 107 287 289 292 323 18 354 2 360 335 325
282 284 285 285 282 274 258 245 238 235 232 221 215 233 246 234 226 231 237 248 252 261 279 293 263 271 283 292 290 282 267 264 267 273 279 273 306 341 329 307 292 279 256 253 268 272 268 264 260 265 278 280 284 299 295 283 277 278 282 277 260 235 219 225 235 240 241 244 252 258 263 293 354 65 109 121 218 287 312 282 212 294 339 334 324 318 315
282 282 281 279 278 273 260 245 234 231 227 212 207 228 244 227 217 221 228 247 264 267 275 275 269 277 281 270 266 271 273 268 264 266 269 269 351 359 332 287 290 317 291 268 270 266 261 272 281 283 283 285 295 326 298 279 277 285 290 286 282 272 258 250 244 240 243 249 250 254 267 323 62 79 128 161 216 301 12 24 286 314 334 320 304 300 307
284 284 278 272 269 266 258 245 232 227 224 210 203 222 245 232 223 221 224 245 269 262 268 284 294 298 294 278 269 268 266 263 264 274 286 291 325 351 301 290 340 351 321 298 286 274 277 301 309 302 292 293 289 293 302 295 288 291 297 304 307 289 269 265 263 254 252 251 241 246 312 14 67 311 288 259 260 294 327 322 309 324 323 305 300 298 312
281 282 277 272 270 263 255 246 233 225 223 214 204 214 234 236 234 226 218 229 247 252 270 292 299 294 283 275 271 266 259 259 262 265 279 288 270 244 265 292 296 262 348 344 308 303 330 333 317 308 299 296 297 307 311 302 285 288 295 299 299 280 274 290 298 282 272 271 270 285 304 302 291 288 287 279 279 288 290 282 288 304 305 300 296 292 306
274 273 272 274 277 269 256 247 236 226 223 218 210 210 222 231 226 210 208 229 248 259 270 277 282 281 272 268 265 256 248 250 250 243 235 245 270 272 269 282 300 303 277 240 276 295 305 298 299 305 295 290 291 300 298 284 274 285 291 283 280 285 291 295 288 281 280 273 267 271 277 285 298 304 293 281 280 283 280 277 279 284 288 290 289 291 306
274 269 267 269 273 270 260 248 237 229 224 222 219 216 219 230 219 194 193 228 253 274 278 266 259 266 272 276 275 257 243 244 246 241 232 225 231 259 260 244 257 282 263 258 307 312 292 269 269 268 267 276 285 284 283 283 279 284 290 284 280 297 340 328 275 277 284 274 267 276 284 300 311 304 294 288 285 278 269 270 274 275 276 280 285 289 296
279 274 269 265 263 262 258 248 239 232 226 225 225 221 219 228 221 198 190 209 229 252 285 273 263 274 280 283 283 270 257 253 250 241 230 221 219 228 248 260 262 258 266 296 11 301 271 263 255 259 261 263 265 264 268 276 279 281 283 279 276 306 18 328 277 271 271 270 277 286 290 293 293 288 285 286 288 289 286 271 263 260 259 269 279 269 261
282 282 280 275 267 261 258 250 241 234 229 227 226 222 220 225 221 204 199 211 322 232 258 282 283 283 289 292 286 281 276 263 249 242 237 230 226 229 241 259 267 262 265 282 282 251 263 261 255 262 265 260 262 272 272 277 285 285 279 276 284 297 301 287 281 280 276 274 278 280 278 278 283 287 290 296 311 323 320 300 278 262 249 246 260 261 254
283 280 278 278 275 268 260 252 244 235 230 229 229 227 224 224 222 212 203 192 162 239 246 257 278 295 309 306 290 280 274 263 249 243 241 237 233 231 233 241 254 259 262 266 255 220 233 249 251 255 262 274 287 283 274 276 281 279 275 274 280 280 273 272 277 277 271 271 275 278 278 280 288 296 302 310 318 312 300 295 296 289 275 257 254 261 251
283 282 278 275 274 268 257 251 246 237 229 227 229 231 230 229 230 227 215 204 203 257 283 267 288 306 308 303 290 276 268 260 248 240 239 238 234 233 233 234 241 248 251 251 244 229 241 249 256 258 262 278 281 270 270 276 272 265 266 267 262 259 262 266 270 269 273 280 283 285 289 281 275 281 287 294 297 292 284 281 280 280 279 272 262 261 255
280 281 279 276 275 268 254 246 244 237 226 219 219 228 235 236 235 234 227 217 217 239 307 289 281 292 295 295 296 291 279 260 242 237 240 240 236 235 236 237 242 246 247 243 241 255 258 254 259 265 250 161 270 274 275 274 266 262 265 267 264 257 255 258 264 269 275 281 283 284 284 276 272 277 284 288 289 287 285 282 272 261 264 262 254 255 255
282 279 277 275 274 269 252 238 237 230 211 193 189 209 235 242 235 231 228 223 218 217 269 290 269 290 303 293 288 285 277 259 241 235 237 240 242 243 240 240 245 247 247 239 229 247 261 252 251 260 228 150 150 277 272 266 270 270 266 264 265 262 257 254 258 264 269 277 281 280 277 275 276 279 280 281 280 278 279 280 276 265 261 263 261 253 246
289 282 276 270 268 266 252 237 234 220 192 175 170 187 238 240 229 224 221 216 209 202 221 273 263 291 297 275 265 272 275 261 245 238 237 238 243 246 244 243 244 236 235 244 237 239 250 244 248 261 242 178 163 241 264 267 275 271 263 259 260 263 264 262 259 259 263 268 271 270 268 267 266 266 267 269 269 268 268 272 268 241 207 236 264 260 243
296 286 271 262 261 262 256 242 230 209 188 181 183 209 238 223 243 216 206 202 196 185 192 274 274 290 288 271 272 280 278 267 254 244 239 235 236 243 243 242 243 238 233 241 246 242 246 243 247 261 255 189 146 231 259 255 256 261 266 271 271 268 270 270 267 266 268 267 266 267 268 263 257 256 260 267 270 269 269 272 266 229 164 174 240 255 246
297 290 275 263 259 257 254 243 226 206 191 192 204 225 238 258 285 178 180 181 176 165 183 227 267 272 277 313 314 274 222 244 257 239 231 227 224 234 238 236 243 245 228 218 228 242 244 244 245 252 252 226 191 242 255 249 250 259 269 277 276 275 277 276 274 274 275 271 265 262 262 263 264 265 265 265 267 268 267 265 262 240 188 183 218 238 231
299 296 287 273 261 256 253 236 210 197 193 202 218 223 213 43 110 164 169 165 145 126 190 218 269 266 265 295 302 215 167 228 254 215 210 230 225 230 242 236 232 231 209 204 217 236 241 248 252 252 251 243 233 240 250 253 257 264 271 271 271 273 275 276 279 280 276 271 263 256 255 258 263 267 269 268 266 265 264 257 246 232 223 217 221 230 226
300 284 285 285 272 253 236 205 187 187 194 207 224 222 218 221 149 164 167 158 123 131 186 205 252 257 264 279 283 149 137 240 251 202 186 251 240 233 254 250 223 219 208 205 221 238 238 236 240 245 246 243 235 231 242 256 263 267 269 271 273 275 275 278 285 286 280 275 269 261 255 254 253 251 253 258 257 252 253 250 236 229 235 230 219 224 227
308 284 288 295 192 157 169 180 179 182 196 208 205 198 200 192 166 174 177 176 204 233 186 188 230 231 243 267 278 350 137 240 245 216 197 240 230 218 223 234 242 246 234 225 239 246 237 221 225 242 240 234 236 239 245 257 263 266 268 272 276 277 280 284 285 282 281 279 273 264 252 250 255 254 249 252 253 246 244 245 235 227 233 231 221 220 225
320 283 123 120 134 134 143 182 186 198 215 188 154 143 144 136 153 183 194 209 256 243 220 245 241 231 241 261 268 150 178 243 255 220 193 196 227 220 210 218 237 247 242 239 244 248 242 231 233 243 240 238 247 255 256 258 263 269 274 277 276 270 271 277 278 278 279 277 271 265 253 244 249 253 251 251 251 243 239 240 234 222 224 229 226 220 223
51 144 147 150 163 182 246 187 189 193 169 150 137 126 120 117 141 194 207 221 234 218 218 244 245 237 245 255 244 180 186 268 295 236 201 211 233 223 207 217 232 236 245 249 246 242 241 237 235 246 252 253 257 261 261 260 265 272 276 278 278 273 272 276 280 281 281 277 273 270 262 248 245 255 260 261 265 267 258 246 234 224 223 228 229 222 223
134 158 204 233 237 327 62 133 154 154 146 140 130 103 74 163 186 210 199 198 213 213 212 230 240 236 235 241 238 215 206 254 270 250 223 210 226 232 223 221 214 211 251 258 247 229 235 238 229 243 256 257 253 255 255 254 257 263 267 270 277 279 274 270 267 265 269 275 278 275 267 248 223 240 260 264 268 277 278 268 249 227 217 222 228 225 222
167 201 253 267 78 90 117 137 145 145 140 136 19 315 181 189 217 223 208 206 222 225 218 224 230 223 222 236 247 232 201 218 256 259 235 210 219 275 260 243 211 222 249 256 251 241 258 266 255 251 259 263 258 256 255 250 253 263 269 268 265 257 249 250 251 250 254 260 265 269 268 246 202 209 241 248 237 240 256 262 250 224 213 219 222 218 221
259 255 264 122 126 134 138 141 142 132 113 116 259 206 204 218 217 216 232 234 233 231 223 222 229 221 209 221 239 231 188 180 245 333 232 219 212 224 242 243 227 249 254 257 259 258 263 267 262 260 265 273 276 278 276 272 273 277 274 269 263 257 257 265 273 275 272 268 267 275 278 265 217 198 233 253 251 240 243 255 248 229 221 221 215 211 221
336 307 127 117 125 135 141 146 155 298 184 202 227 231 223 215 205 215 234 236 239 242 220 214 231 238 199 202 226 235 194 157 132 132 196 224 213 216 235 239 222 236 248 257 264 261 259 259 262 264 266 272 280 288 292 290 285 278 273 274 281 297 307 302 299 298 295 291 290 291 290 285 268 220 221 251 265 258 243 240 237 225 219 219 217 215 215
65 150 136 117 122 140 168 202 205 189 200 227 228 217 214 212 214 222 222 220 236 244 218 187 186 173 156 180 206 174 94 109 133 166 201 220 215 224 241 239 228 239 258 266 257 255 256 254 259 267 274 279 285 293 296 293 288 280 278 285 294 298 296 292 292 295 296 294 293 292 290 288 283 252 222 228 245 251 243 231 220 213 210 210 212 211 200
166 168 159 131 135 175 207 198 165 185 217 218 203 211 227 223 215 224 231 231 230 227 207 186 190 201 194 187 185 153 124 127 156 191 212 223 222 221 233 238 238 247 261 261 253 253 258 259 261 270 280 288 298 303 299 293 288 282 282 290 297 297 294 290 285 286 287 289 293 296 294 294 296 284 258 246 251 259 260 235 205 204 203 196 201 207 199
196 188 180 186 188 185 191 181 175 202 226 222 209 221 237 238 239 244 243 237 238 235 215 196 200 204 191 161 176 197 181 135 154 204 215 219 220 219 225 250 269 266 260 259 254 251 252 254 257 267 282 295 303 296 279 273 273 275 280 289 299 304 307 307 301 294 290 290 294 297 298 296 294 290 283 277 271 268 265 246 207 200 197 190 197 207 199
215 190 188 214 220 203 203 213 209 210 221 221 218 224 235 247 258 264 260 230 254 252 231 206 212 216 200 161 154 200 182 166 195 218 208 210 233 231 228 252 271 263 251 252 250 248 252 258 263 276 301 315 313 301 290 289 292 288 287 292 295 297 303 306 303 301 299 293 290 293 298 298 295 289 285 280 270 262 262 252 215 197 196 196 201 201 189
230 221 221 239 239 212 213 229 235 234 239 245 245 246 250 256 263 270 270 266 270 263 229 201 217 234 220 184 188 213 199 193 214 219 201 215 247 249 232 238 241 232 236 246 248 249 258 266 277 310 333 324 310 299 293 292 292 288 288 291 290 287 289 294 298 303 308 310 310 311 306 299 294 287 281 276 267 257 251 230 196 189 194 202 205 197 185
226 211 213 228 237 220 221 233 244 249 256 262 264 265 266 266 267 270 267 255 256 261 243 219 215 235 224 188 200 226 221 206 218 221 200 218 248 245 227 232 235 231 239 248 251 258 264 269 298 1 327 305 300 297 295 298 300 291 282 280 286 292 293 294 295 297 302 306 311 311 308 304 300 290 281 278 270 253 232 204 188 191 197 201 199 191 184
258 250 231 235 248 245 243 250 258 261 260 259 259 262 265 265 263 264 264 245 227 243 256 220 183 212 209 176 187 224 219 192 202 215 200 207 229 237 237 243 244 242 242 245 250 260 269 279 307 310 292 283 285 290 297 314 320 296 280 278 283 286 287 287 289 292 295 296 294 290 291 299 302 293 283 279 271 252 222 189 184 198 204 202 197 191 187
243 242 233 232 241 251 256 258 260 262 263 263 262 262 265 265 264 263 262 248 213 170 134 138 179 212 217 196 204 229 221 200 205 225 223 217 222 232 242 248 250 251 256 261 266 274 281 291 299 294 286 281 279 282 286 291 279 269 275 285 286 283 284 285 286 289 293 292 291 289 289 291 293 288 280 276 270 251 205 180 191 207 212 207 200 195 190
229 229 233 233 238 247 256 258 260 265 269 272 275 274 272 272 273 273 250 223 211 193 191 202 204 206 213 212 215 228 227 206 211 228 232 229 226 230 238 246 253 261 269 276 284 290 291 289 288 286 285 285 285 283 279 268 255 252 257 264 270 277 285 287 285 286 285 283 284 286 287 285 285 285 282 274 261 233 187 186 202 211 212 208 205 201 196
224 230 242 240 239 247 253 256 262 269 272 274 281 285 281 279 282 282 140 180 220 227 226 223 209 198 210 220 225 233 238 231 228 232 233 232 232 238 245 254 264 272 277 282 288 290 289 291 297 300 298 295 291 288 286 283 278 272 266 266 270 278 284 284 284 285 283 279 277 278 278 278 280 280 277 267 250 227 201 199 206 209 211 212 212 209 203